CZ-4B DEB, 44589

Orbit data source: Space-Track

CZ-4B DEB, 44589 is space debris in SSO originally from a launch on Thu, 14 Oct 1999 UTC launched from the Taiyaun Space Center, China (TSC). Debris objects in space refer to the collection of defunct objects orbiting the Earth. Examples of debris include non-operational satellites, rocket bodies, and fragments generated from explosions, collisions, or faulty payload assembly.

Loading next visibility...
CZ-4B DEB details
Identifier
44589, 1999-057TB
Orbit
SSO
Last TLE update2 days ago
Origin
Flag of CNCNSA (CN / PRC)
ManufacturerUnknown
MissionSpacecraft
Bus & MotorUnknown
MassUnknown
Launch date (UTC)
1999-10-14 (25 years ago)
Launch vehicleUnknown
Launch site
Taiyaun Space Center, China (TSC)
Object type
Payload
Rocket body
Debris
Shape & HBRUnknown
Radar Cross SectionSmall (<0.1 m²)

Expand to show TLE details & history

TLE from 2 days ago
0 CZ-4B DEB
1 44589U 99057TB  24359.24239363  .00002005  00000-0  28968-3 0  9998
2 44589  98.8210 179.8471 0082728 273.3475  85.8270 14.75258161596016
Epoch: 2024-12-24T05:49Z
Definitive object data (Epoch: 2024-12-24T05:49:02.809Z)
Latitude-0.00008°
Longitude-0.6679°
Altitude643.568 km
Speed7.538 km/s
True Right ascension11h 59m 23s
True Declination0° 00' 00"
Sunlit
Object was in daylight at TLE epoch
Visualization TLE readout
Latitude-67.82184°
Longitude24.15167°
Altitude616.966 km
Speed7.578 km/s
Apparent Right ascension02h 04m 28s
Apparent Declination-77° 53' 15"
Sunlit
Object is in daylight
Visualization observer readout
Local Sidereal Time13:50:32
Azimuth181.186° SSW
Elevation-52.001°
Doppler factor1
Orbital elements
Apogee altitude699.494 km
Perigee altitude583.351 km
Semi-major axis7,019.559 km
Eccentricity0.0082728
Inclination98.821°
RAAN179.8471°
Arg. of periapsis273.3475°
True anomaly86.77315°
Mean anomaly85.827°
Eccentric anomaly86.30001°
Mean motion3.69044 °/min
BSTAR0.00028968
Orbital period97.55 mins
Loading maneuver chart data...
Loading historical data...
Loading historical data...
Loading historical data...
Loading historical data...
Loading historical data...
Loading historical data...
Loading historical data...

CZ-4B DEB Visibility forecast

Observer location: undefined°, undefined

Span
Click to sort rows by Start time (UTC) header in descending order
Start Az.
Max El. time (UTC)
Max El. Az.
Max El.
End time (UTC)
End Az.
8 mins2024-12-27 01:07:41.912Z17.002° NNE2024-12-27 01:11:41.912Z90.514° ESE44.373°2024-12-27 01:15:41.912Z189.689° SSW
7 mins2024-12-27 12:05:41.912Z152.212° SSE2024-12-27 12:08:41.912Z33.273° NE42.306°2024-12-27 12:12:41.912Z351.193° N
|